{"data":{"norad_id":55839,"intl_designator":"2023-030D","name":"TIANHUI 6B","alt_names":[],"object_type":"PAYLOAD","status":"ACTIVE","operator":null,"country":"PRC","launch_date":"2023-03-09","launch_site_code":"TAISC","launch_vehicle":null,"mission":null,"orbit_class":"UNKNOWN","rcs_meters":null,"size_class":null,"mass_kg":null,"dimensions":null,"purposes":[],"wikipedia_slug":null,"has_3d_model":false,"image_url":null,"decayed_at":null,"tle_current":{"epoch":"2026-09-21T23:14:39.225120Z","epoch_age_seconds":54390,"freshness":"FRESH","line1":"1 55839U 23030D   26264.96850955 -.00000023  00000+0  14247-4 0  9992","line2":"2 55839  99.0124 272.0090 0002835 136.2525 223.8865 14.01326235180942","mean_motion":14.01326235,"eccentricity":0.0002835,"inclination_deg":99.0124,"raan_deg":272.009,"arg_perigee_deg":136.2525,"mean_anomaly_deg":223.8865,"bstar":1.4247e-5,"rev_number":18094,"period_min":102.75979740007,"perigee_km":887.14595179127,"apogee_km":891.26653541039,"semimajor_km":7267.3432436008,"source":"CELESTRAK","updated_at":"2026-09-22T09:00:25.591089Z"}}}